Time,TemperatureF,DewpointF,PressureIn,WindDirection,WindDirectionDegrees,WindSpeedMPH,WindSpeedGustMPH,Humidity,HourlyPrecipIn,Conditions,Clouds,dailyrainin,SoftwareType,DateUTC
2013-06-15 00:02:00,75.0,73.0,29.96,WSW,253,2.0,4.0,92,0.00,,,0.00,,2013-06-15 04:02:00,
2013-06-15 00:12:00,75.0,73.0,29.96,WSW,253,2.0,4.0,92,0.00,,,0.00,,2013-06-15 04:12:00,
2013-06-15 00:22:00,75.0,73.0,29.96,West,272,2.0,4.0,93,0.00,,,0.00,,2013-06-15 04:22:00,
2013-06-15 00:34:00,75.0,73.0,29.95,WSW,257,1.0,4.0,93,0.00,,,0.00,,2013-06-15 04:34:00,
2013-06-15 00:43:00,75.0,73.0,29.95,WSW,257,1.0,4.0,93,0.00,,,0.00,,2013-06-15 04:43:00,
2013-06-15 00:54:00,75.0,73.0,29.95,WSW,251,1.0,4.0,94,0.00,,,0.00,,2013-06-15 04:54:00,
2013-06-15 01:02:00,75.0,73.0,29.95,WSW,251,1.0,4.0,94,0.00,,,0.00,,2013-06-15 05:02:00,
2013-06-15 01:12:00,74.0,72.0,29.96,WSW,257,1.0,5.0,95,0.00,,,0.00,,2013-06-15 05:12:00,
2013-06-15 01:22:00,74.0,72.0,29.95,WSW,255,1.0,4.0,95,0.00,,,0.00,,2013-06-15 05:22:00,
2013-06-15 01:34:00,74.0,72.0,29.95,WSW,255,1.0,4.0,95,0.00,,,0.00,,2013-06-15 05:34:00,
2013-06-15 01:43:00,74.0,73.0,29.96,SW,236,1.0,4.0,96,0.00,,,0.00,,2013-06-15 05:43:00,
2013-06-15 01:52:00,74.0,73.0,29.95,West,263,2.0,5.0,96,0.00,,,0.00,,2013-06-15 05:52:00,
2013-06-15 02:02:00,74.0,73.0,29.95,West,263,2.0,5.0,96,0.00,,,0.00,,2013-06-15 06:02:00,
2013-06-15 02:12:00,74.0,73.0,29.95,West,265,1.0,4.0,96,0.00,,,0.00,,2013-06-15 06:12:00,
2013-06-15 02:24:00,74.0,73.0,29.95,West,260,1.0,3.0,96,0.00,,,0.00,,2013-06-15 06:24:00,
2013-06-15 02:33:00,74.0,73.0,29.95,West,260,1.0,3.0,96,0.00,,,0.00,,2013-06-15 06:33:00,
2013-06-15 02:43:00,74.0,73.0,29.95,WSW,257,1.0,3.0,97,0.00,,,0.00,,2013-06-15 06:43:00,
2013-06-15 02:53:00,74.0,73.0,29.94,WSW,257,0.0,1.0,97,0.00,,,0.00,,2013-06-15 06:53:00,
2013-06-15 03:01:00,74.0,73.0,29.94,WSW,257,0.0,2.0,97,0.00,,,0.00,,2013-06-15 07:01:00,
2013-06-15 03:11:00,74.0,73.0,29.94,WSW,257,0.0,2.0,97,0.00,,,0.00,,2013-06-15 07:11:00,
2013-06-15 03:23:00,74.0,73.0,29.94,WSW,257,0.0,1.0,97,0.00,,,0.00,,2013-06-15 07:23:00,
2013-06-15 03:33:00,74.0,73.0,29.93,WSW,251,0.0,3.0,97,0.00,,,0.00,,2013-06-15 07:33:00,
2013-06-15 03:43:00,74.0,73.0,29.93,WSW,251,0.0,3.0,97,0.00,,,0.00,,2013-06-15 07:43:00,
2013-06-15 03:54:00,73.0,72.0,29.93,WSW,251,0.0,2.0,97,0.00,,,0.00,,2013-06-15 07:54:00,
2013-06-15 04:02:00,73.0,72.0,29.93,WSW,251,0.0,2.0,98,0.00,,,0.00,,2013-06-15 08:02:00,
2013-06-15 04:11:00,73.0,72.0,29.93,WSW,251,0.0,2.0,98,0.00,,,0.00,,2013-06-15 08:11:00,
2013-06-15 04:22:00,74.0,73.0,29.93,SW,234,2.0,4.0,98,0.00,,,0.00,,2013-06-15 08:22:00,
2013-06-15 04:33:00,74.0,73.0,29.94,WSW,253,1.0,4.0,98,0.00,,,0.00,,2013-06-15 08:33:00,
2013-06-15 04:43:00,74.0,73.0,29.94,WSW,253,1.0,4.0,98,0.00,,,0.00,,2013-06-15 08:43:00,
2013-06-15 04:53:00,74.0,73.0,29.94,WSW,248,1.0,3.0,98,0.00,,,0.00,,2013-06-15 08:53:00,
2013-06-15 05:02:00,74.0,73.0,29.94,WSW,248,0.0,4.0,98,0.00,,,0.00,,2013-06-15 09:02:00,
2013-06-15 05:12:00,74.0,73.0,29.94,WSW,248,0.0,4.0,98,0.00,,,0.00,,2013-06-15 09:12:00,
2013-06-15 05:22:00,74.0,73.0,29.94,SW,228,0.0,4.0,98,0.00,,,0.00,,2013-06-15 09:22:00,
2013-06-15 05:33:00,74.0,73.0,29.94,SW,228,0.0,4.0,98,0.00,,,0.00,,2013-06-15 09:33:00,
2013-06-15 05:43:00,74.0,73.0,29.96,WSW,239,0.0,2.0,98,0.00,,,0.00,,2013-06-15 09:43:00,
2013-06-15 05:52:00,74.0,73.0,29.96,WSW,239,0.0,1.0,98,0.00,,,0.00,,2013-06-15 09:52:00,
2013-06-15 06:02:00,73.0,72.0,29.96,WSW,239,0.0,0.0,98,0.00,,,0.00,,2013-06-15 10:02:00,
2013-06-15 06:12:00,73.0,72.0,29.96,WSW,239,0.0,0.0,98,0.00,,,0.00,,2013-06-15 10:12:00,
2013-06-15 06:23:00,73.0,72.0,29.96,WSW,239,0.0,0.0,98,0.00,,,0.00,,2013-06-15 10:23:00,
2013-06-15 06:34:00,73.0,72.0,29.96,WSW,239,0.0,0.0,98,0.00,,,0.00,,2013-06-15 10:34:00,
2013-06-15 06:44:00,73.0,72.0,29.97,WSW,239,0.0,0.0,98,0.00,,,0.00,,2013-06-15 10:44:00,
2013-06-15 06:53:00,73.0,72.0,29.98,WSW,239,0.0,0.0,98,0.00,,,0.00,,2013-06-15 10:53:00,
2013-06-15 07:02:00,73.0,72.0,29.98,WSW,239,0.0,0.0,98,0.00,,,0.00,,2013-06-15 11:02:00,
2013-06-15 07:12:00,74.0,73.0,29.98,WSW,239,0.0,1.0,98,0.00,,,0.00,,2013-06-15 11:12:00,
2013-06-15 07:22:00,74.0,73.0,29.98,WSW,239,0.0,1.0,98,0.00,,,0.00,,2013-06-15 11:22:00,
2013-06-15 07:33:00,75.0,74.0,29.98,WSW,239,0.0,0.0,98,0.00,,,0.00,,2013-06-15 11:33:00,
2013-06-15 07:43:00,75.0,74.0,29.98,WSW,239,0.0,0.0,98,0.00,,,0.00,,2013-06-15 11:43:00,
2013-06-15 07:53:00,75.0,75.0,29.99,SW,236,0.0,2.0,99,0.00,,,0.00,,2013-06-15 11:53:00,
2013-06-15 08:02:00,75.0,75.0,29.99,SW,236,0.0,2.0,99,0.00,,,0.00,,2013-06-15 12:02:00,
2013-06-15 08:12:00,76.0,75.0,29.99,South,190,0.0,4.0,98,0.00,,,0.00,,2013-06-15 12:12:00,
2013-06-15 08:22:00,76.0,75.0,30.00,SSW,194,0.0,1.0,98,0.00,,,0.00,,2013-06-15 12:22:00,
2013-06-15 08:33:00,76.0,75.0,30.00,SSW,194,0.0,1.0,98,0.00,,,0.00,,2013-06-15 12:33:00,
2013-06-15 08:43:00,77.0,76.0,30.01,WSW,237,2.0,3.0,98,0.00,,,0.00,,2013-06-15 12:43:00,
2013-06-15 08:52:00,77.0,76.0,30.01,WSW,243,1.0,3.0,98,0.00,,,0.00,,2013-06-15 12:52:00,
2013-06-15 09:02:00,77.0,76.0,30.01,WSW,243,1.0,3.0,98,0.00,,,0.00,,2013-06-15 13:02:00,
2013-06-15 09:11:00,78.0,77.0,30.01,WSW,243,0.0,1.0,97,0.00,,,0.00,,2013-06-15 13:11:00,
2013-06-15 09:22:00,79.0,78.0,30.02,SSW,211,0.0,3.0,96,0.00,,,0.00,,2013-06-15 13:22:00,
2013-06-15 09:32:00,79.0,77.0,30.02,WSW,245,0.0,4.0,95,0.00,,,0.00,,2013-06-15 13:32:00,
2013-06-15 09:43:00,79.0,77.0,30.02,WSW,245,0.0,4.0,95,0.00,,,0.00,,2013-06-15 13:43:00,
2013-06-15 09:53:00,80.0,78.0,30.02,WSW,239,1.0,5.0,93,0.00,,,0.00,,2013-06-15 13:53:00,
2013-06-15 10:01:00,81.0,78.0,30.02,SW,234,1.0,4.0,92,0.00,,,0.00,,2013-06-15 14:01:00,
2013-06-15 10:12:00,81.0,78.0,30.02,SW,234,1.0,4.0,92,0.00,,,0.00,,2013-06-15 14:12:00,
2013-06-15 10:22:00,82.0,79.0,30.01,SW,221,0.0,3.0,90,0.00,,,0.00,,2013-06-15 14:22:00,
2013-06-15 10:34:00,83.0,80.0,30.01,WSW,250,1.0,7.0,90,0.00,,,0.00,,2013-06-15 14:34:00,
2013-06-15 10:43:00,83.0,80.0,30.01,WSW,250,1.0,7.0,90,0.00,,,0.00,,2013-06-15 14:43:00,
2013-06-15 10:54:00,82.0,78.0,30.02,WSW,255,3.0,7.0,88,0.00,,,0.00,,2013-06-15 14:54:00,
2013-06-15 11:02:00,84.0,78.0,30.03,West,259,4.0,8.0,83,0.00,,,0.00,,2013-06-15 15:02:00,
2013-06-15 11:11:00,84.0,78.0,30.03,West,259,4.0,8.0,83,0.00,,,0.00,,2013-06-15 15:11:00,
2013-06-15 11:22:00,84.0,78.0,30.03,WSW,256,2.0,6.0,83,0.00,,,0.00,,2013-06-15 15:22:00,
2013-06-15 11:33:00,83.0,78.0,30.04,West,277,3.0,8.0,85,0.00,,,0.00,,2013-06-15 15:33:00,
2013-06-15 11:43:00,83.0,78.0,30.04,West,277,3.0,8.0,85,0.00,,,0.00,,2013-06-15 15:43:00,
2013-06-15 11:53:00,83.0,77.0,30.03,West,278,1.0,6.0,83,0.00,,,0.00,,2013-06-15 15:53:00,
2013-06-15 12:01:00,84.0,78.0,30.03,WSW,253,2.0,6.0,83,0.00,,,0.00,,2013-06-15 16:01:00,
2013-06-15 12:11:00,84.0,78.0,30.03,WSW,253,2.0,6.0,83,0.00,,,0.00,,2013-06-15 16:11:00,
2013-06-15 12:22:00,85.0,79.0,30.03,NW,305,3.0,5.0,83,0.00,,,0.00,,2013-06-15 16:22:00,
2013-06-15 12:33:00,86.0,79.0,30.03,WNW,294,0.0,4.0,79,0.00,,,0.00,,2013-06-15 16:33:00,
2013-06-15 12:43:00,86.0,79.0,30.03,WNW,294,0.0,4.0,79,0.00,,,0.00,,2013-06-15 16:43:00,
2013-06-15 12:53:00,86.0,79.0,30.03,West,277,3.0,7.0,79,0.00,,,0.00,,2013-06-15 16:53:00,
2013-06-15 13:02:00,85.0,78.0,30.03,West,274,3.0,8.0,81,0.00,,,0.00,,2013-06-15 17:02:00,
2013-06-15 13:12:00,85.0,78.0,30.03,West,274,3.0,8.0,81,0.00,,,0.00,,2013-06-15 17:12:00,
2013-06-15 13:22:00,83.0,77.0,30.03,WSW,254,3.0,8.0,83,0.00,,,0.00,,2013-06-15 17:22:00,
2013-06-15 13:32:00,83.0,78.0,30.03,West,279,3.0,6.0,84,0.00,,,0.00,,2013-06-15 17:32:00,
2013-06-15 13:43:00,83.0,78.0,30.03,West,279,3.0,6.0,84,0.00,,,0.00,,2013-06-15 17:43:00,
2013-06-15 13:52:00,83.0,78.0,30.03,NW,306,0.0,4.0,86,0.00,,,0.00,,2013-06-15 17:52:00,
2013-06-15 14:01:00,82.0,78.0,30.02,NNE,12,4.0,7.0,87,0.00,,,0.00,,2013-06-15 18:01:00,
2013-06-15 14:12:00,82.0,78.0,30.02,NNE,12,4.0,7.0,87,0.00,,,0.00,,2013-06-15 18:12:00,
2013-06-15 14:22:00,83.0,79.0,30.02,ENE,64,4.0,7.0,89,0.00,,,0.00,,2013-06-15 18:22:00,
2013-06-15 14:32:00,87.0,81.0,30.01,NE,52,1.0,5.0,82,0.00,,,0.00,,2013-06-15 18:32:00,
2013-06-15 14:43:00,87.0,81.0,30.01,NE,52,1.0,5.0,82,0.00,,,0.00,,2013-06-15 18:43:00,
2013-06-15 14:53:00,89.0,83.0,30.01,North,355,1.0,3.0,83,0.00,,,0.00,,2013-06-15 18:53:00,
2013-06-15 15:01:00,89.0,81.0,30.00,WNW,292,1.0,4.0,77,0.00,,,0.00,,2013-06-15 19:01:00,
2013-06-15 15:12:00,89.0,81.0,30.00,WNW,292,1.0,4.0,77,0.00,,,0.00,,2013-06-15 19:12:00,
2013-06-15 15:22:00,89.0,78.0,30.00,East,82,0.0,4.0,71,0.00,,,0.00,,2013-06-15 19:22:00,
2013-06-15 15:33:00,88.0,79.0,30.00,SSE,147,2.0,6.0,74,0.00,,,0.00,,2013-06-15 19:33:00,
2013-06-15 15:43:00,88.0,79.0,30.00,SSE,147,2.0,6.0,74,0.00,,,0.00,,2013-06-15 19:43:00,
2013-06-15 15:53:00,88.0,77.0,30.00,WSW,240,0.0,3.0,71,0.00,,,0.00,,2013-06-15 19:53:00,
2013-06-15 16:02:00,87.0,79.0,29.99,East,91,1.0,5.0,78,0.00,,,0.00,,2013-06-15 20:02:00,
2013-06-15 16:11:00,87.0,79.0,29.99,East,91,1.0,5.0,78,0.00,,,0.00,,2013-06-15 20:11:00,
2013-06-15 16:22:00,88.0,81.0,29.99,East,80,1.0,6.0,81,0.00,,,0.00,,2013-06-15 20:22:00,
2013-06-15 16:33:00,87.0,77.0,29.99,East,82,0.0,1.0,73,0.00,,,0.00,,2013-06-15 20:33:00,
2013-06-15 16:43:00,87.0,77.0,29.99,East,82,0.0,1.0,73,0.00,,,0.00,,2013-06-15 20:43:00,
2013-06-15 16:53:00,85.0,77.0,29.99,ENE,63,1.0,5.0,77,0.00,,,0.00,,2013-06-15 20:53:00,
2013-06-15 17:02:00,83.0,77.0,29.99,NW,318,2.0,6.0,81,0.00,,,0.00,,2013-06-15 21:02:00,
2013-06-15 17:12:00,83.0,77.0,29.99,NW,318,2.0,6.0,81,0.00,,,0.00,,2013-06-15 21:12:00,
2013-06-15 17:22:00,79.0,76.0,30.00,WNW,302,3.0,7.0,90,0.01,,,0.01,,2013-06-15 21:22:00,
2013-06-15 17:33:00,77.0,74.0,30.01,West,277,7.0,12.0,92,0.02,,,0.02,,2013-06-15 21:33:00,
2013-06-15 17:42:00,77.0,74.0,30.01,West,277,7.0,12.0,92,0.02,,,0.02,,2013-06-15 21:42:00,
2013-06-15 17:53:00,76.0,74.0,30.00,WSW,242,2.0,10.0,94,0.02,,,0.02,,2013-06-15 21:53:00,
2013-06-15 18:01:00,75.0,73.0,29.99,West,271,2.0,5.0,95,0.02,,,0.02,,2013-06-15 22:01:00,
2013-06-15 18:11:00,75.0,73.0,29.99,West,271,2.0,5.0,95,0.02,,,0.02,,2013-06-15 22:11:00,
2013-06-15 18:22:00,75.0,73.0,30.00,West,262,1.0,3.0,95,0.01,,,0.02,,2013-06-15 22:22:00,
2013-06-15 18:33:00,76.0,75.0,30.00,NW,308,0.0,1.0,96,0.00,,,0.02,,2013-06-15 22:33:00,
2013-06-15 18:43:00,76.0,75.0,30.00,NW,308,0.0,1.0,96,0.00,,,0.02,,2013-06-15 22:43:00,
2013-06-15 18:53:00,76.0,75.0,30.02,NNE,25,2.0,6.0,96,0.00,,,0.02,,2013-06-15 22:53:00,
2013-06-15 19:02:00,76.0,75.0,30.02,WSW,257,1.0,16.0,96,0.00,,,0.02,,2013-06-15 23:02:00,
2013-06-15 19:12:00,76.0,75.0,30.02,WSW,257,1.0,16.0,96,0.00,,,0.02,,2013-06-15 23:12:00,
2013-06-15 19:22:00,76.0,75.0,30.02,NE,38,2.0,7.0,96,0.00,,,0.02,,2013-06-15 23:22:00,
2013-06-15 19:33:00,76.0,75.0,30.03,North,360,0.0,4.0,96,0.01,,,0.03,,2013-06-15 23:33:00,
2013-06-15 19:42:00,76.0,75.0,30.03,North,360,0.0,4.0,96,0.01,,,0.03,,2013-06-15 23:42:00,
2013-06-15 19:53:00,76.0,75.0,30.04,WNW,286,0.0,5.0,96,0.02,,,0.04,,2013-06-15 23:53:00,
2013-06-15 20:02:00,76.0,75.0,30.04,NE,38,3.0,6.0,97,0.02,,,0.04,,2013-06-16 00:02:00,
2013-06-15 20:11:00,76.0,75.0,30.04,NE,38,3.0,6.0,97,0.02,,,0.04,,2013-06-16 00:11:00,
2013-06-15 20:22:00,76.0,75.0,30.03,NE,42,3.0,5.0,97,0.02,,,0.04,,2013-06-16 00:22:00,
2013-06-15 20:34:00,76.0,75.0,30.03,ENE,60,1.0,4.0,97,0.01,,,0.04,,2013-06-16 00:34:00,
2013-06-15 20:43:00,76.0,75.0,30.03,ENE,60,1.0,4.0,97,0.01,,,0.04,,2013-06-16 00:43:00,
2013-06-15 20:52:00,76.0,75.0,30.03,East,86,0.0,2.0,98,0.00,,,0.04,,2013-06-16 00:52:00,
2013-06-15 21:01:00,76.0,75.0,30.03,NE,37,0.0,3.0,98,0.00,,,0.04,,2013-06-16 01:01:00,
2013-06-15 21:12:00,76.0,75.0,30.03,NE,37,0.0,3.0,98,0.00,,,0.04,,2013-06-16 01:12:00,
2013-06-15 21:22:00,76.0,75.0,30.03,ENE,60,1.0,4.0,98,0.00,,,0.04,,2013-06-16 01:22:00,
2013-06-15 21:33:00,76.0,75.0,30.04,ENE,61,3.0,7.0,98,0.00,,,0.04,,2013-06-16 01:33:00,
2013-06-15 21:42:00,76.0,75.0,30.04,ENE,61,3.0,7.0,98,0.00,,,0.04,,2013-06-16 01:42:00,
2013-06-15 21:53:00,76.0,75.0,30.05,ENE,74,1.0,5.0,98,0.00,,,0.04,,2013-06-16 01:53:00,
2013-06-15 22:02:00,76.0,75.0,30.05,ENE,65,2.0,8.0,98,0.00,,,0.04,,2013-06-16 02:02:00,
2013-06-15 22:12:00,76.0,75.0,30.05,ENE,65,2.0,8.0,98,0.00,,,0.04,,2013-06-16 02:12:00,
2013-06-15 22:22:00,76.0,75.0,30.05,NE,55,2.0,8.0,97,0.00,,,0.04,,2013-06-16 02:22:00,
2013-06-15 22:33:00,76.0,75.0,30.05,NE,51,4.0,7.0,97,0.00,,,0.04,,2013-06-16 02:33:00,
2013-06-15 22:43:00,76.0,75.0,30.05,NE,51,4.0,7.0,97,0.00,,,0.04,,2013-06-16 02:43:00,
2013-06-15 22:53:00,76.0,75.0,30.06,East,80,3.0,7.0,97,0.00,,,0.04,,2013-06-16 02:53:00,
2013-06-15 23:02:00,76.0,75.0,30.06,ENE,77,3.0,7.0,97,0.00,,,0.04,,2013-06-16 03:02:00,
2013-06-15 23:12:00,76.0,75.0,30.06,ENE,77,3.0,7.0,97,0.00,,,0.04,,2013-06-16 03:12:00,
2013-06-15 23:22:00,76.0,75.0,30.06,East,89,1.0,5.0,97,0.00,,,0.04,,2013-06-16 03:22:00,
2013-06-15 23:34:00,76.0,75.0,30.06,East,87,2.0,9.0,97,0.00,,,0.04,,2013-06-16 03:34:00,
2013-06-15 23:43:00,76.0,75.0,30.06,East,87,2.0,9.0,97,0.00,,,0.04,,2013-06-16 03:43:00,
2013-06-15 23:53:00,76.0,75.0,30.06,ESE,108,4.0,8.0,97,0.00,,,0.04,,2013-06-16 03:53:00,